Terminal Aerodrome Forecast
Issued by NWS Louisville, KY

Home | Current Version | Previous Version | Text Only | Print | Product List | Glossary On
Versions: 1 2 3 4 5 6 7 8 9 10 11 12 13 14 15 16 17
000
FTUS43 KLMK 170500
TAFLEX
TAF
KLEX 170520Z 1706/1806 27008KT P6SM OVC007
      TEMPO 1706/1710 3SM -DZ BR OVC005
     FM171200 27007KT P6SM OVC012=

USA.gov is the U.S. government's official web portal to all federal, state and local government web resources and services.